Location: Newark
(31.5350°N, 35.0986°E)
Time: 09:41:14
(UTC+00:00)

ISS - Visible Passes

Search period start: 20 August 2019 00:00
Search period end: 30 August 2019 00:00
Orbit: 410 x 420 km, 51.6° (Epoch: 20 August)

Date Brightness Start Highest point End Pass type
(mag) Time Alt. Az. Time Alt. Az. Time Alt. Az.
24 Aug -1.2 02:03:26 10° S 02:05:40 17° SE 02:07:54 10° E visible
26 Aug -3.5 02:02:45 24° SSW 02:04:33 62° SE 02:07:51 10° NE visible
27 Aug -2.0 01:16:18 27° ESE 01:16:18 27° ESE 01:18:45 10° ENE visible
28 Aug -2.9 02:02:38 28° WNW 02:03:35 35° NW 02:06:42 10° NNE visible
29 Aug -2.2 01:15:59 34° NNE 01:15:59 34° NNE 01:18:02 10° NE visible
